Date String (YYYY-MM-DD hh:mm:ss) UTC,Instrument flags,Ambient pressure (hPa),Sample flow (lpm),Bypass flow (lpm),Sample temperature (°C),Ambient temperature (°C),ASC tube jacket temperature (°C),LED temperature (°C),Box temperature (°C),Sample RH (%),Span deviation,Mass concentration (μg/m³),Mass concentration (μg/m³),Mass concentration (μg/m³)
DateTimeUTC,F1_M11,P_M11,Q1_M11,Q2_M11,T1_M11,T2_M11,T3_M11,T4_M11,T5_M11,U1_M11,ZSPAN_M11,X0_M11,X2_M11,X1_M11
2022-07-23 07:00:00,,0825.5,5.00,0.00,29.5,28.3,00.0,38.3,31.5,22.7,0000.0,0010.22,0005.32,0004.46
2022-07-23 07:01:00,,0825.5,5.00,0.00,29.6,28.4,00.0,38.3,31.6,22.8,0000.0,0010.12,0005.34,0004.51
2022-07-23 07:02:00,,0825.4,5.00,0.00,29.6,28.5,00.0,38.3,31.6,23.3,0000.0,0010.24,0005.40,0004.56
2022-07-23 07:03:00,,0825.5,5.00,0.00,29.6,28.6,00.0,38.3,31.6,23.4,0000.0,0010.56,0005.47,0004.62
2022-07-23 07:04:00,,0825.5,5.00,0.00,29.7,28.4,00.0,38.3,31.7,23.6,0000.0,0010.70,0005.52,0004.65
2022-07-23 07:05:00,,0825.4,4.99,0.00,29.7,27.8,00.0,38.3,31.6,23.7,0000.0,0010.76,0005.54,0004.68
2022-07-23 07:06:00,,0825.4,5.01,0.00,29.6,27.5,00.0,38.3,31.5,23.8,0000.0,0010.60,0005.51,0004.68
2022-07-23 07:07:00,,0825.4,4.99,0.00,29.6,27.5,00.0,38.3,31.4,23.8,0000.0,0010.29,0005.46,0004.68
2022-07-23 07:08:00,,0825.4,5.00,0.00,29.5,27.6,00.0,38.3,31.4,23.9,0000.0,0010.15,0005.41,0004.67
2022-07-23 07:09:00,,0825.4,5.00,0.00,29.5,27.7,00.0,38.3,31.4,24.0,0000.0,0009.81,0005.43,0004.66
2022-07-23 07:10:00,,0825.4,5.01,0.00,29.5,27.8,00.0,38.3,31.4,24.0,0000.0,0009.79,0005.40,0004.63
2022-07-23 07:11:00,,0825.4,4.99,0.00,29.5,27.9,00.0,38.3,31.4,24.0,0000.0,0010.42,0005.42,0004.62
2022-07-23 07:12:00,,0825.5,4.99,0.00,29.5,28.1,00.0,38.3,31.5,24.0,0000.0,0011.41,0005.49,0004.62
2022-07-23 07:13:00,,0825.4,5.01,0.00,29.6,28.2,00.0,38.3,31.5,24.0,0000.0,0012.09,0005.51,0004.61
2022-07-23 07:14:00,,0825.5,5.00,0.00,29.6,28.3,00.0,38.3,31.5,24.1,0000.0,0011.76,0005.45,0004.59
2022-07-23 07:15:00,,0825.4,5.00,0.00,29.6,28.4,00.0,38.3,31.6,23.9,0000.0,0012.17,0005.43,0004.57
2022-07-23 07:16:00,,0825.4,5.00,0.00,29.6,28.5,00.0,38.4,31.6,23.8,0000.0,0012.14,0005.42,0004.56
2022-07-23 07:17:00,,0825.4,4.99,0.00,29.7,28.6,00.0,38.4,31.7,23.7,0000.0,0012.25,0005.46,0004.57
2022-07-23 07:18:00,,0825.4,5.00,0.00,29.7,28.4,00.0,38.4,31.7,23.5,0000.0,0012.60,0005.50,0004.56
2022-07-23 07:19:00,,0825.4,5.01,0.00,29.7,27.7,00.0,38.3,31.6,23.4,0000.0,0012.66,0005.50,0004.55
2022-07-23 07:20:00,,0825.4,4.99,0.00,29.7,27.4,00.0,38.3,31.5,23.4,0000.0,0012.43,0005.42,0004.53
2022-07-23 07:21:00,,0825.4,5.00,0.00,29.6,27.4,00.0,38.3,31.4,23.4,0000.0,0012.63,0005.42,0004.51
2022-07-23 07:22:00,,0825.4,5.00,0.00,29.5,27.5,00.0,38.3,31.4,23.4,0000.0,0012.67,0005.42,0004.50
2022-07-23 07:23:00,,0825.4,4.99,0.00,29.5,27.6,00.0,38.3,31.4,23.3,0000.0,0011.59,0005.33,0004.47
2022-07-23 07:24:00,,0825.4,5.01,0.00,29.5,27.8,00.0,38.3,31.4,23.3,0000.0,0010.65,0005.26,0004.44
2022-07-23 07:25:00,,0825.3,5.00,0.00,29.5,27.9,00.0,38.3,31.4,23.2,0000.0,0010.65,0005.27,0004.43
2022-07-23 07:26:00,,0825.4,5.00,0.00,29.5,28.1,00.0,38.3,31.5,23.1,0000.0,0010.10,0005.27,0004.43
2022-07-23 07:27:00,,0825.4,5.00,0.00,29.6,28.2,00.0,38.3,31.5,23.0,0000.0,0010.07,0005.24,0004.42
2022-07-23 07:28:00,,0825.3,5.00,0.00,29.6,28.3,00.0,38.3,31.5,22.9,0000.0,0009.85,0005.17,0004.41
2022-07-23 07:29:00,,0825.3,5.00,0.00,29.6,28.4,00.0,38.4,31.6,22.9,0000.0,0009.53,0005.12,0004.40
2022-07-23 07:30:00,,0825.3,5.00,0.00,29.6,28.5,00.0,38.4,31.6,22.8,0000.0,0009.59,0005.09,0004.39
2022-07-23 07:31:00,,0825.4,5.00,0.00,29.7,28.6,00.0,38.4,31.7,22.6,0000.0,0009.94,0005.10,0004.39
2022-07-23 07:32:00,,0825.3,5.00,0.00,29.7,28.6,00.0,38.4,31.7,22.5,0000.0,0009.61,0005.09,0004.39
2022-07-23 07:33:00,,0825.3,5.00,0.00,29.7,28.4,00.0,38.4,31.7,22.2,0000.0,0009.25,0005.07,0004.42
2022-07-23 07:34:00,,0825.3,5.01,0.00,29.7,27.7,00.0,38.3,31.6,22.0,0000.0,0009.48,0005.13,0004.45
2022-07-23 07:35:00,,0825.3,5.00,0.00,29.7,27.5,00.0,38.3,31.5,21.8,0000.0,0009.66,0005.20,0004.47
2022-07-23 07:36:00,,0825.3,4.99,0.00,29.6,27.5,00.0,38.3,31.4,21.9,0000.0,0009.82,0005.22,0004.50
2022-07-23 07:37:00,,0825.3,5.00,0.00,29.6,27.6,00.0,38.3,31.4,21.9,0000.0,0010.03,0005.23,0004.51
2022-07-23 07:38:00,,0825.3,5.00,0.00,29.6,27.7,00.0,38.3,31.4,21.9,0000.0,0010.14,0005.29,0004.54
2022-07-23 07:39:00,,0825.3,4.99,0.00,29.6,27.8,00.0,38.3,31.4,21.8,0000.0,0010.25,0005.34,0004.56
2022-07-23 07:40:00,,0825.3,5.00,0.00,29.6,28.0,00.0,38.3,31.5,21.8,0000.0,0010.41,0005.40,0004.59
2022-07-23 07:41:00,,0825.3,5.00,0.00,29.6,28.1,00.0,38.4,31.5,21.7,0000.0,0010.29,0005.42,0004.59
2022-07-23 07:42:00,,0825.3,5.00,0.00,29.6,28.2,00.0,38.4,31.5,21.9,0000.0,0009.88,0005.41,0004.60
2022-07-23 07:43:00,,0825.3,4.99,0.00,29.6,28.3,00.0,38.4,31.6,21.8,0000.0,0009.87,0005.42,0004.59
2022-07-23 07:44:00,,0825.3,5.00,0.00,29.7,28.4,00.0,38.4,31.6,21.8,0000.0,0010.32,0005.43,0004.57
2022-07-23 07:45:00,,0825.2,5.01,0.00,29.7,28.5,00.0,38.4,31.7,21.8,0000.0,0011.67,0005.40,0004.53
2022-07-23 07:46:00,,0825.2,5.01,0.00,29.7,28.6,00.0,38.4,31.7,21.7,0000.0,0012.14,0005.36,0004.52
2022-07-23 07:47:00,,0825.2,4.99,0.00,29.8,28.6,00.0,38.4,31.7,21.5,0000.0,0012.07,0005.34,0004.50
2022-07-23 07:48:00,,0825.2,5.00,0.00,29.8,28.0,00.0,38.4,31.7,21.3,0000.0,0011.86,0005.31,0004.47
2022-07-23 07:49:00,,0825.2,5.01,0.00,29.7,27.5,00.0,38.3,31.5,21.5,0000.0,0011.66,0005.25,0004.43
2022-07-23 07:50:00,,0825.2,4.99,0.00,29.7,27.5,00.0,38.4,31.4,21.7,0000.0,0011.56,0005.19,0004.41
2022-07-23 07:51:00,,0825.2,5.00,0.00,29.6,27.5,00.0,38.4,31.4,21.6,0000.0,0011.73,0005.15,0004.38
2022-07-23 07:52:00,,0825.2,4.99,0.00,29.6,27.7,00.0,38.4,31.4,21.4,0000.0,0012.01,0005.14,0004.36
2022-07-23 07:53:00,,0825.2,5.00,0.00,29.6,27.8,00.0,38.4,31.4,21.2,0000.0,0012.38,0005.15,0004.35
2022-07-23 07:54:00,,0825.2,5.00,0.00,29.6,27.9,00.0,38.4,31.4,20.4,0000.0,0012.94,0005.11,0004.32
2022-07-23 07:55:00,,0825.1,5.00,0.00,29.6,28.1,00.0,38.4,31.5,19.8,0000.0,0012.94,0005.04,0004.26
2022-07-23 07:56:00,,0825.1,5.00,0.00,29.6,28.2,00.0,38.4,31.5,19.9,0000.0,0012.20,0004.98,0004.21
2022-07-23 07:57:00,,0825.1,4.99,0.00,29.6,28.3,00.0,38.4,31.6,20.0,0000.0,0011.57,0004.90,0004.14
2022-07-23 07:58:00,,0825.1,4.99,0.00,29.7,28.4,00.0,38.4,31.6,20.4,0000.0,0011.45,0004.89,0004.10
2022-07-23 07:59:00,,0825.1,5.01,0.00,29.7,28.5,00.0,38.4,31.6,20.6,0000.0,0011.29,0004.86,0004.08
